Przesłane przez Hari

Przejdź do nawigacji Przejdź do wyszukiwania

Na tej stronie specjalnej prezentowane są wszystkie przesłane pliki.

Lista plików
Pierwsza stronaPoprzednia stronaNastępna stronaOstatnia strona
Data Nazwa Miniatura Wielkość Opis Wersje
15:13, 16 lut 2017 Ślepy Dhritarasztra atakuje posąg Bhima.jpg (plik) 400 KB Ślepy Dhritarasztra atakuje posąg Bhima.jpg 1
15:13, 16 lut 2017 Kunti Gandhari Dhrtarasztra.jpg (plik) 83 KB Kunti prowadzi Dhritarasztra i Gandhari podczas wyprawy do lasu na wygnanie 1
11:41, 16 lut 2017 Bitwa Kaurawów Z Pandawami.jpg (plik) 170 KB Bitwa Kaurawów z Pandawami na polu Kuru. 1
20:37, 31 sty 2017 Gorakhnath2.jpg (plik) 518 KB Śrī Gorakh Nātha 1
19:48, 31 sty 2017 Gorakhnath temple gorakhpur.jpg (plik) 550 KB Świątynia Gorakhnatha w Gorakhpur 1
15:56, 27 sty 2017 Yajnavalkya and Janaka.jpg (plik) 532 KB   1
18:08, 18 sty 2017 Nandi.png (plik) 2,48 MB Posąg byka Nandi w Lepakshi w stanie Andhra Pradesh, India 1
08:37, 6 cze 2010 Śri Anandamaji Ma 010.jpg (plik) 17 KB   1
08:35, 6 cze 2010 Śri Anandamaji Ma 009.jpg (plik) 28 KB   1
08:33, 6 cze 2010 Śri Anandamaji Ma 008.jpg (plik) 22 KB   1
08:32, 6 cze 2010 Śri Anandamaji Ma 007.jpg (plik) 18 KB   1
08:31, 6 cze 2010 Śri Anandamaji Ma 006.jpg (plik) 41 KB   1
08:29, 6 cze 2010 Śri Anandamaji Ma 005.jpg (plik) 34 KB   1
08:27, 6 cze 2010 Śri Anandamaji Ma 004.jpg (plik) 24 KB   1
08:25, 6 cze 2010 Śri Anandamaji Ma 003.jpg (plik) 19 KB   1
08:23, 6 cze 2010 Śri Anandamaji Ma 002.jpg (plik) 23 KB   1
08:22, 6 cze 2010 001.jpg (plik) 23 KB   1
08:21, 6 cze 2010 Śri Anandamaji Ma 001.jpg (plik) 24 KB   1
08:08, 6 cze 2010 Śri Anandamaji Ma.jpg (plik) 58 KB   1
13:25, 26 maj 2010 Ranirasmani.jpg (plik) 17 KB   1
21:18, 21 mar 2010 Ramakrishna at studio.jpg (plik) 93 KB   1
21:17, 21 mar 2010 Ramakrishna Marble Statue.jpg (plik) 194 KB   1
20:07, 21 mar 2010 Disciples at Ramakrishna's funeral.jpg (plik) 1,47 MB   1
20:06, 21 mar 2010 Holy mother sarada.jpg (plik) 37 KB   1
19:40, 21 mar 2010 Ramakrishna Monastic Disciples 1899.jpg (plik) 33 KB   1
19:36, 21 mar 2010 Ramakrishna trance 1879.jpg (plik) 234 KB   1
18:45, 21 mar 2010 Panchavati Ramakrishna.jpg (plik) 870 KB   1
17:08, 21 mar 2010 Kolkatatemple.jpg (plik) 604 KB   1
17:06, 21 mar 2010 Dakshineswar Bhavatarini Kali.jpg (plik) 180 KB   1
16:37, 21 mar 2010 Kamarpukur Ramakrishna Hut.jpg (plik) 761 KB   1
19:34, 17 mar 2010 Mahendranathgupta.jpg (plik) 39 KB   1
05:30, 29 gru 2009 Zecharia sitchin.gif (plik) 157 KB   1
19:56, 5 lis 2009 Aśoka.jpg (plik) 7 KB   1
08:24, 18 paź 2009 Ghi.jpg (plik) 54 KB   1
07:53, 18 paź 2009 Jarowit.jpg (plik) 134 KB   1
16:28, 17 paź 2009 Gmina Nowy Żmigród.png (plik) 97 KB   1
16:24, 17 paź 2009 Dobryna.jpg (plik) 124 KB   1
15:44, 17 paź 2009 Świętowit.jpg (plik) 128 KB   1
15:23, 17 paź 2009 Perunmarks.png (plik) 44 KB   1
09:01, 17 paź 2009 Dattatreya.jpg (plik) 22 KB   1
07:58, 17 paź 2009 Dewata.jpg (plik) 170 KB   1
07:36, 17 paź 2009 Damaru.jpg (plik) 109 KB   1
07:25, 17 paź 2009 Mahavira.jpg (plik) 18 KB   1
05:36, 17 paź 2009 Leonard Orr.jpg (plik) 13 KB   1
03:24, 17 paź 2009 Kailaś.jpg (plik) 150 KB   1
03:16, 17 paź 2009 Arunachala.jpg (plik) 25 KB   1
14:58, 15 paź 2009 Cave Temple of Lord Amarnath.jpg (plik) 383 KB   1
14:37, 14 paź 2009 Saraswati.jpg (plik) 61 KB   1
07:35, 14 paź 2009 Pungi.jpg (plik) 100 KB   1
07:29, 14 paź 2009 Shehnai.jpg (plik) 282 KB   1
Pierwsza stronaPoprzednia stronaNastępna stronaOstatnia strona